Location: Azul
(36.7830°S, 59.8500°W)
Time: 00:08:12
(UTC-03:00)

DELFI C3 - Pass Details

Date: 31 October 2021
Orbit: 529 x 543 km, 97.4° (Epoch: 30 November)

Event Time Altitude Azimuth Distance (km) Brightness Sun altitude
Rises 22:01:23 0° 191° (S) 2,730 ? -26.2°
Reaches altitude 10° 22:04:27 10° 217° (SW) 1,823 ? -26.6°
Maximum altitude 22:06:25 14° 247° (WSW) 1,598 ? -26.9°
Drops below altitude 10° 22:08:22 10° 277° (W) 1,806 ? -27.1°
Sets 22:11:22 0° 304° (WNW) 2,682 ? -27.6°
